Weather in Solnechnoye

Russia / Amur Oblast     50°36′10″N   127°59′06″E
temp.,
°C
wind,
m/s
gust,
m/s
humid.,
%
clouds,
%
prec.,
mm/h
press.,
hPa
HPBL,
m
8 march, mon
mon800:00−16wsw129995 0.0 102620
03:00−17ssw229258 0.0 102620
06:00−17s34930 0.0 102551
09:00−13s58890 0.0 1024219
12:00−8s610890 0.0 1020382
15:00−3s712845 0.0 1016600
18:00−3s81582100 0.0 1012421
21:00−4ssw51187100 0.0 1010360
9 march, tue
tue900:00−3ssw51086100 0.1 1006307
03:00−5w4996100 0.6 1005345
06:00−7nw6138877 0.1 1005389
09:00−9nnw8158289 0.1 1009756
12:00−5nnw8157793 0.0 10131361
15:00−2nw9157396 0.0 10161485
18:00−5nw615770 0.0 1019623
21:00−8nw513780 0.0 1023304
10 march, wed
wed1000:00−11wnw34830 0.0 102550
03:00−13w23760 0.0 102520
06:00−13ssw347937 0.0 102432
09:00−9ssw5117964 0.0 1022302
12:00−5s61080100 0.0 1019390
15:000sw6107398 0.0 10151131
18:00−3w3681100 0.0 1016110
21:00−7w348655 0.0 101962
11 march, thu
thu1100:00−7nw5109032 0.0 1022223
03:00−11nw349216 0.0 102566
06:00−13nw23890 0.0 102721
09:00−10nnw24850 0.0 1029151
12:00−6wsw12760 0.0 1029337
15:00−3ssw34850 0.0 1027465
18:00−7s348937 0.0 102643
21:00−9s338718 0.0 102826
12 march, fri
fri1200:00−9ssw33840 0.0 102822
03:00−9ssw338627 0.0 102824
06:00−10sw22870 0.0 102921
09:00−7s22890 0.0 102886
12:00−3s479012 0.0 1026285
15:000s510916 0.0 1024371
18:000sw59820 0.0 1022143
21:00−3ssw46820 0.0 102285